H1 CPF 2 NER 2024 12 14 9 349 01 glonass135 H2 1600801 9135 41330 2024 12 14 0 0 0 2024 12 17 23 45 0 900 1 1 0 0 0 1 H9 10 0 60658 0.00000 0 13270471.368 8772518.407 19940892.269 10 0 60658 900.00000 0 14291773.682 10888714.490 18102463.379 10 0 60658 1800.00000 0 15354848.325 12702923.832 15912324.673 10 0 60658 2700.00000 0 16401825.340 14185853.352 13412882.893 10 0 60658 3600.00000 0 17372054.181 15320996.333 10652603.863 10 0 60658 4500.00000 0 18204740.247 16105088.684 7685077.907 10 0 60658 5400.00000 0 18841609.950 16548016.090 4567980.673 10 0 60658 6300.00000 0 19229491.075 16672175.631 1361949.338 10 0 60658 7200.00000 0 19322698.198 16511318.722 -1870603.568 10 0 60658 8100.00000 0 19085120.696 16108924.473 -5066714.892 10 0 60658 9000.00000 0 18491923.273 15516172.815 -8164109.166 10 0 60658 9900.00000 0 17530785.247 14789604.082 -11102424.977 10 0 60658 10800.00000 0 16202624.512 13988565.363 -13824404.052 10 0 60658 11700.00000 0 14521774.166 13172553.082 -16277018.536 10 0 60658 12600.00000 0 12515603.272 12398565.723 -18412513.252 10 0 60658 13500.00000 0 10223597.022 11718579.958 -20189341.823 10 0 60658 14400.00000 0 7695934.618 11177257.912 -21572977.922 10 0 60658 15300.00000 0 4991624.529 10809983.072 -22536585.737 10 0 60658 16200.00000 0 2176275.362 10641307.969 -23061536.928 10 0 60658 17100.00000 0 -680404.263 10683878.885 -23137764.567 10 0 60658 18000.00000 0 -3507272.305 10937882.322 -22763948.020 10 0 60658 18900.00000 0 -6234475.264 11391035.646 -21947526.115 10 0 60658 19800.00000 0 -8796112.496 12019121.193 -20704539.322 10 0 60658 20700.00000 0 -11132732.665 12787040.221 -19059304.958 10 0 60658 21600.00000 0 -13193559.512 13650341.202 -17043932.600 10 0 60658 22500.00000 0 -14938355.778 14557157.191 -14697689.797 10 0 60658 23400.00000 0 -16338849.376 15450469.970 -12066231.016 10 0 60658 24300.00000 0 -17379664.428 16270605.142 -9200705.206 10 0 60658 25200.00000 0 -18058720.449 16957852.938 -6156759.599 10 0 60658 26100.00000 0 -18387085.194 17455104.393 -2993459.244 10 0 60658 27000.00000 0 -18388289.381 17710392.155 227856.712 10 0 60658 27900.00000 0 -18097133.824 17679229.344 3444759.955 10 0 60658 28800.00000 0 -17558040.452 17326648.490 6594936.387 10 0 60658 29700.00000 0 -16823017.468 16628855.185 9617385.067 10 0 60658 30600.00000 0 -15949324.645 15574427.214 12453590.086 10 0 60658 31500.00000 0 -14996936.947 14165008.832 15048643.379 10 0 60658 32400.00000 0 -14025912.690 12415470.739 17352297.647 10 0 60658 33300.00000 0 -13093776.182 10353528.295 19319929.960 10 0 60658 34200.00000 0 -12253023.902 8018832.802 20913398.336 10 0 60658 35100.00000 0 -11548858.082 5461572.214 22101775.620 10 0 60658 36000.00000 0 -11017242.018 2740637.679 22861947.166 10 0 60658 36900.00000 0 -10683358.242 -78569.834 23179061.147 10 0 60658 37800.00000 0 -10560534.098 -2926603.861 23046822.892 10 0 60658 38700.00000 0 -10649680.065 -5732607.420 22467627.206 10 0 60658 39600.00000 0 -10939265.134 -8427011.091 21452525.411 10 0 60658 40500.00000 0 -11405831.313 -10944183.637 20021026.678 10 0 60658 41400.00000 0 -12015026.970 -13224926.143 18200736.147 10 0 60658 42300.00000 0 -12723116.937 -15218706.483 16026835.386 10 0 60658 43200.00000 0 -13478907.122 -16885541.223 13541413.732 10 0 60658 44100.00000 0 -14226003.537 -18197446.239 10792662.155 10 0 60658 45000.00000 0 -14905311.074 -19139394.901 7833944.214 10 0 60658 45900.00000 0 -15457666.536 -19709743.131 4722761.512 10 0 60658 46800.00000 0 -15826494.188 -19920102.969 1519633.504 10 0 60658 47700.00000 0 -15960370.446 -19794669.604 -1713086.169 10 0 60658 48600.00000 0 -15815387.701 -19369030.211 -4912433.097 10 0 60658 49500.00000 0 -15357215.453 -18688505.168 -8016070.301 10 0 60658 50400.00000 0 -14562769.620 -17806092.417 -10963515.720 10 0 60658 51300.00000 0 -13421417.546 -16780102.880 -13697333.621 10 0 60658 52200.00000 0 -11935666.077 -15671588.125 -16164265.353 10 0 60658 53100.00000 0 -10121302.293 -14541670.356 -18316276.174 10 0 60658 54000.00000 0 -8006979.931 -13448888.821 -20111496.923 10 0 60658 54900.00000 0 -5633268.234 -12446675.705 -21515041.701 10 0 60658 55800.00000 0 -3051202.839 -11581068.740 -22499685.498 10 0 60658 56700.00000 0 -320399.401 -10888757.237 -23046388.905 10 0 60658 57600.00000 0 2493191.111 -10395543.625 -23144660.234 10 0 60658 58500.00000 0 5319791.525 -10115284.647 -22792748.831 10 0 60658 59400.00000 0 8088467.350 -10049355.709 -21997666.747 10 0 60658 60300.00000 0 10729844.390 -10186659.578 -20775039.311 10 0 60658 61200.00000 0 13178762.389 -10504177.600 -19148788.458 10 0 60658 62100.00000 0 15376754.967 -10968038.710 -17150655.791 10 0 60658 63000.00000 0 17274253.778 -11535059.847 -14819575.377 10 0 60658 63900.00000 0 18832426.455 -12154691.700 -12200909.043 10 0 60658 64800.00000 0 20024573.463 -12771286.901 -9345559.471 10 0 60658 65700.00000 0 20837027.484 -13326594.487 -6308978.586 10 0 60658 66600.00000 0 21269519.730 -13762375.160 -3150090.709 10 0 60658 67500.00000 0 21334999.834 -14023027.123 69848.610 10 0 60658 68400.00000 0 21058918.629 -14058111.983 3288436.065 10 0 60658 69300.00000 0 20478005.385 -13824674.630 6443323.616 10 0 60658 70200.00000 0 19638591.883 -13289259.757 9473418.196 10 0 60658 71100.00000 0 18594554.344 -12429540.422 12320055.427 10 0 60658 72000.00000 0 17404959.768 -11235490.296 14928125.338 10 0 60658 72900.00000 0 16131515.222 -9710050.111 17247129.168 10 0 60658 73800.00000 0 14835926.478 -7869259.773 19232147.778 10 0 60658 74700.00000 0 13577275.914 -5741849.541 20844703.840 10 0 60658 75600.00000 0 12409528.557 -3368305.887 22053502.071 10 0 60658 76500.00000 0 11379269.781 -799449.118 22835033.850 10 0 60658 77400.00000 0 10523768.597 1905420.098 23174034.980 10 0 60658 78300.00000 0 9869447.070 4680730.474 23063787.822 10 0 60658 79200.00000 0 9430819.763 7457116.527 22506261.661 10 0 60658 80100.00000 0 9209947.846 10164060.857 21512087.869 10 0 60658 81000.00000 0 9196431.310 12732594.240 20100369.330 10 0 60658 81900.00000 0 9367940.463 15097942.658 18298326.430 10 0 60658 82800.00000 0 9691265.412 17202011.892 16140785.031 10 0 60658 83700.00000 0 10123840.415 18995606.529 13669514.832 10 0 60658 84600.00000 0 10615679.789 20440290.629 10932429.582 10 0 60658 85500.00000 0 11111644.309 21509811.773 7982663.608 10 0 60659 0.00000 0 11553942.481 22191028.086 4877542.202 10 0 60659 900.00000 0 11884760.823 22484298.900 1677463.965 10 0 60659 1800.00000 0 12048910.391 22403321.136 -1555278.658 10 0 60659 2700.00000 0 11996376.961 21974419.135 -4757722.508 10 0 60659 3600.00000 0 11684664.553 21235316.818 -7867471.475 10 0 60659 4500.00000 0 11080831.415 20233444.780 -10823925.047 10 0 60659 5400.00000 0 10163130.273 19023854.412 -13569472.003 10 0 60659 6300.00000 0 8922181.644 17666828.134 -16050624.614 10 0 60659 7200.00000 0 7361629.016 16225287.814 -18219070.051 10 0 60659 8100.00000 0 5498246.986 14762111.938 -20032617.609 10 0 60659 9000.00000 0 3361496.849 13337475.705 -21456022.833 10 0 60659 9900.00000 0 992547.743 12006326.899 -22461672.323 10 0 60659 10800.00000 0 -1557195.833 10816104.179 -23030116.181 10 0 60659 11700.00000 0 -4227998.573 9804793.611 -23150438.285 10 0 60659 12600.00000 0 -6954051.273 8999404.579 -22820457.979 10 0 60659 13500.00000 0 -9665985.813 8414927.987 -22046760.198 10 0 60659 14400.00000 0 -12293543.429 8053819.099 -20844554.405 10 0 60659 15300.00000 0 -14768285.263 7906025.005 -19237366.010 10 0 60659 16200.00000 0 -17026232.821 7949553.731 -17256567.143 10 0 60659 17100.00000 0 -19010329.144 8151559.221 -14940756.578 10 0 60659 18000.00000 0 -20672619.187 8469894.905 -12335001.472 10 0 60659 18900.00000 0 -21976059.903 8855069.000 -9489956.063 10 0 60659 19800.00000 0 -22895886.051 9252518.098 -6460874.742 10 0 60659 20700.00000 0 -23420476.379 9605102.473 -3306538.856 10 0 60659 21600.00000 0 -23551685.724 9855717.493 -88118.117 10 0 60659 22500.00000 0 -23304630.764 9949910.922 3132011.412 10 0 60659 23400.00000 0 -22706939.854 9838395.913 6291469.999 10 0 60659 24300.00000 0 -21797499.506 9479354.001 9329074.719 10 0 60659 25200.00000 0 -20624750.816 8840431.398 12186015.027 10 0 60659 26100.00000 0 -19244607.548 7900344.708 14806981.343 10 0 60659 27000.00000 0 -17718083.007 6650028.515 17141225.703 10 0 60659 27900.00000 0 -16108724.561 5093276.210 19143534.903 10 0 60659 28800.00000 0 -14479962.394 3246846.360 20775098.245 10 0 60659 29700.00000 0 -12892482.339 1140028.866 22004254.028 10 0 60659 30600.00000 0 -11401731.521 -1186312.727 22807101.055 10 0 60659 31500.00000 0 -10055660.014 -3681184.869 23167963.786 10 0 60659 32400.00000 0 -8892791.996 -6285335.788 23079702.243 10 0 60659 33300.00000 0 -7940706.429 -8933479.876 22543860.392 10 0 60659 34200.00000 0 -7214990.549 -11556784.415 21570649.440 10 0 60659 35100.00000 0 -6718710.064 -14085517.200 20178765.332 10 0 60659 36000.00000 0 -6442418.678 -16451746.508 18395042.641 10 0 60659 36900.00000 0 -6364707.203 -18591982.018 16253950.082 10 0 60659 37800.00000 0 -6453269.924 -20449647.148 13796935.924 10 0 60659 38700.00000 0 -6666444.074 -21977279.560 11071634.604 10 0 60659 39600.00000 0 -6955158.030 -23138367.365 8130948.889 10 0 60659 40500.00000 0 -7265206.135 -23908743.314 5032024.694 10 0 60659 41400.00000 0 -7539753.793 -24277477.535 1835138.241 10 0 60659 42300.00000 0 -7721966.022 -24247230.331 -1397482.501 10 0 60659 43200.00000 0 -7757647.018 -23834049.457 -4602878.440 10 0 60659 44100.00000 0 -7597777.290 -23066619.944 -7718597.220 10 0 60659 45000.00000 0 -7200839.047 -21984998.032 -10683922.807 10 0 60659 45900.00000 0 -6534829.398 -20638882.968 -13441071.421 10 0 60659 46800.00000 0 -5578874.216 -19085500.258 -15936329.132 10 0 60659 47700.00000 0 -4324372.733 -17387186.587 -18121107.733 10 0 60659 48600.00000 0 -2775623.032 -15608779.288 -19952897.433 10 0 60659 49500.00000 0 -949900.966 -13814921.293 -21396097.314 10 0 60659 50400.00000 0 1123011.585 -12067395.795 -22422707.223 10 0 60659 51300.00000 0 3401829.766 -10422603.117 -23012867.895 10 0 60659 52200.00000 0 5835258.238 -8929285.744 -23155239.347 10 0 60659 53100.00000 0 8363910.616 -7626596.536 -22847210.969 10 0 60659 54000.00000 0 10922575.574 -6542590.117 -22094940.129 10 0 60659 54900.00000 0 13442734.964 -5693199.281 -20913219.506 10 0 60659 55800.00000 0 15855228.927 -5081737.515 -19325176.664 10 0 60659 56700.00000 0 18092957.143 -4698946.496 -17361812.534 10 0 60659 57600.00000 0 20093504.085 -4523584.416 -15061388.498 10 0 60659 58500.00000 0 21801579.515 -4523528.390 -12468674.570 10 0 60659 59400.00000 0 23171173.444 -4657342.697 -9634073.728 10 0 60659 60300.00000 0 24167336.817 -4876245.285 -6612639.699 10 0 60659 61200.00000 0 24767514.911 -5126388.502 -3463007.497 10 0 60659 62100.00000 0 24962379.184 -5351357.103 -246257.500 10 0 60659 63000.00000 0 24756124.233 -5494777.773 2975264.982 10 0 60659 63900.00000 0 24166218.719 -5502929.978 6139151.931 10 0 60659 64800.00000 0 23222621.795 -5327248.206 9184133.750 10 0 60659 65700.00000 0 21966498.580 -4926610.336 12051256.595 10 0 60659 66600.00000 0 20448488.831 -4269316.007 14685013.778 10 0 60659 67500.00000 0 18726601.207 -3334671.822 17034410.228 10 0 60659 68400.00000 0 16863820.737 -2114116.549 19053940.359 10 0 60659 69300.00000 0 14925528.680 -611838.533 20704461.380 10 0 60659 70200.00000 0 12976841.479 1155141.595 21953946.051 10 0 60659 71100.00000 0 11079978.629 3157427.853 22778101.092 10 0 60659 72000.00000 0 9291768.060 5354228.313 23160839.711 10 0 60659 72900.00000 0 7661391.936 7694818.309 23094599.278 10 0 60659 73800.00000 0 6228465.988 10120428.836 22580497.721 10 0 60659 74700.00000 0 5021531.940 12566483.847 21628324.945 10 0 60659 75600.00000 0 4057025.688 14965095.416 20256368.435 10 0 60659 76500.00000 0 3338764.442 17247714.683 18491075.069 10 0 60659 77400.00000 0 2857974.634 19347829.347 16366554.230 10 0 60659 78300.00000 0 2593859.868 21203595.956 13923930.313 10 0 60659 79200.00000 0 2514685.605 22760297.151 11210555.809 10 0 60659 80100.00000 0 2579335.290 23972520.706 8279099.140 10 0 60659 81000.00000 0 2739272.476 24805968.203 5186524.241 10 0 60659 81900.00000 0 2940825.863 25238816.402 1992981.463 10 0 60659 82800.00000 0 3127699.969 25262572.843 -1239368.344 10 0 60659 83700.00000 0 3243604.109 24882388.626 -4447572.995 10 0 60659 84600.00000 0 3234886.846 24116814.302 -7569126.573 10 0 60659 85500.00000 0 3053062.535 22997008.679 -10543199.989 10 0 60660 0.00000 0 2657121.085 21565433.939 -13311838.863 10 0 60660 900.00000 0 2015520.941 19874091.552 -15821105.463 10 0 60660 1800.00000 0 1107779.738 17982375.937 -18022137.550 10 0 60660 2700.00000 0 -74406.822 15954634.552 -19872107.553 10 0 60660 3600.00000 0 -1526565.881 13857539.794 -21335059.121 10 0 60660 4500.00000 0 -3231394.422 11757383.242 -22382606.099 10 0 60660 5400.00000 0 -5159255.098 9717406.505 -22994480.328 10 0 60660 6300.00000 0 -7269200.358 7795280.723 -23158918.136 10 0 60660 7200.00000 0 -9510481.937 6040840.045 -22872878.764 10 0 60660 8100.00000 0 -11824482.435 4494163.141 -22142091.425 10 0 60660 9000.00000 0 -14146988.097 3184081.716 -20980931.008 10 0 60660 9900.00000 0 -16410707.701 2127176.729 -19412125.786 10 0 60660 10800.00000 0 -18547932.465 1327302.255 -17466303.666 10 0 60660 11700.00000 0 -20493226.120 775654.640 -15181386.487 10 0 60660 12600.00000 0 -22186033.314 451381.782 -12601844.733 10 0 60660 13500.00000 0 -23573098.052 322704.702 -9777827.606 10 0 60660 14400.00000 0 -24610592.072 348502.306 -6764185.601 10 0 60660 15300.00000 0 -25265865.201 480291.016 -3619404.834 10 0 60660 16200.00000 0 -25518745.679 664514.658 -404473.826 10 0 60660 17100.00000 0 -25362337.226 845047.279 2818295.336 10 0 60660 18000.00000 0 -24803280.626 965802.950 5986468.767 10 0 60660 18900.00000 0 -23861469.792 973342.430 9038692.570 10 0 60660 19800.00000 0 -22569234.922 819366.923 11915871.921 10 0 60660 20700.00000 0 -20970027.229 462994.142 14562305.248 10 0 60660 21600.00000 0 -19116660.223 -127278.979 16926752.468 10 0 60660 22500.00000 0 -17069180.564 -972009.383 18963417.518 10 0 60660 23400.00000 0 -14892456.577 -2079702.918 20632827.152 10 0 60660 24300.00000 0 -12653583.919 -3446218.331 21902589.923 10 0 60660 25200.00000 0 -10419215.172 -5054706.304 22748021.431 10 0 60660 26100.00000 0 -8252923.247 -6876087.713 23152624.216 10 0 60660 27000.00000 0 -6212707.042 -8870053.054 23108413.187 10 0 60660 27900.00000 0 -4348741.991 -10986543.602 22616080.032 10 0 60660 28800.00000 0 -2701468.364 -13167654.798 21684992.792 10 0 60660 29700.00000 0 -1300096.372 -15349884.755 20333029.577 10 0 60660 30600.00000 0 -161590.210 -17466636.044 18586248.328 10 0 60660 31500.00000 0 709826.423 -19450867.891 16478397.531 10 0 60660 32400.00000 0 1322622.409 -21237788.954 14050275.865 10 0 60660 33300.00000 0 1697370.531 -22767478.498 11348951.767 10 0 60660 34200.00000 0 1865642.448 -23987325.924 8426857.000 10 0 60660 35100.00000 0 1868433.730 -24854185.638 5340771.046 10 0 60660 36000.00000 0 1754185.525 -25336155.650 2150715.804 10 0 60660 36900.00000 0 1576486.990 -25413903.721 -1081217.638 10 0 60660 37800.00000 0 1391556.593 -25081483.901 -4292086.679 10 0 60660 38700.00000 0 1255610.260 -24346607.799 -7419334.530 10 0 60660 39600.00000 0 1222229.489 -23230358.212 -10402021.729 10 0 60660 40500.00000 0 1339842.747 -21766356.652 -13182026.427 10 0 60660 41400.00000 0 1649428.711 -19999419.693 -15705188.667 10 0 60660 42300.00000 0 2182540.350 -17983761.003 -17922375.123 10 0 60660 43200.00000 0 2959735.006 -15780815.272 -19790442.645 10 0 60660 44100.00000 0 3989478.042 -13456776.193 -21273081.336 10 0 60660 45000.00000 0 5267567.259 -11079952.614 -22341520.537 10 0 60660 45900.00000 0 6777102.893 -8718054.261 -22975084.241 10 0 60660 46800.00000 0 8489004.744 -6435520.985 -23161585.651 10 0 60660 47700.00000 0 10363054.720 -4291007.137 -22897553.961 10 0 60660 48600.00000 0 12349420.911 -2335125.625 -22188289.875 10 0 60660 49500.00000 0 14390599.148 -608544.799 -21047749.713 10 0 60660 50400.00000 0 16423690.491 859483.878 -19498261.298 10 0 60660 51300.00000 0 18382919.244 2052107.820 -17570077.972 10 0 60660 52200.00000 0 20202286.209 2965326.171 -15300780.122 10 0 60660 53100.00000 0 21818246.358 3607896.949 -12734536.450 10 0 60660 54000.00000 0 23172299.338 4000704.812 -9921239.766 10 0 60660 54900.00000 0 24213385.049 4175618.228 -6915534.429 10 0 60660 55800.00000 0 24899984.770 4173886.076 -3775754.506 10 0 60660 56700.00000 0 25201840.803 4044142.739 -562793.364 10 0 60660 57600.00000 0 25101223.550 3840106.886 2661073.465 10 0 60660 58500.00000 0 24593693.895 3618071.652 5833389.490 10 0 60660 59400.00000 0 23688329.742 3434292.338 8892719.595 10 0 60660 60300.00000 0 22407407.792 3342381.741 11779830.787 10 0 60660 61200.00000 0 20785554.140 3390822.643 14438829.121 10 0 60660 62100.00000 0 18868399.103 3620701.915 16818231.662 10 0 60660 63000.00000 0 16710791.963 4063761.307 18871953.689 10 0 60660 63900.00000 0 14374649.291 4740846.833 20560192.984 10 0 60660 64800.00000 0 11926525.335 5660822.121 21850195.038 10 0 60660 65700.00000 0 9435004.238 6819992.022 22716885.136 10 0 60660 66600.00000 0 6968021.065 8202061.781 23143355.595 10 0 60660 67500.00000 0 4590221.525 9778635.070 23121198.921 10 0 60660 68400.00000 0 2360468.750 11510232.026 22650680.207 10 0 60660 69300.00000 0 329599.678 13347786.911 21740744.822 10 0 60660 70200.00000 0 -1461476.442 15234565.018 20408860.245 10 0 60660 71100.00000 0 -2983258.748 17108420.804 18680693.782 10 0 60660 72000.00000 0 -4218653.023 18904304.523 16589630.944 10 0 60660 72900.00000 0 -5163445.749 20556913.746 14176142.276 10 0 60660 73800.00000 0 -5826233.842 22003379.336 11487009.503 10 0 60660 74700.00000 0 -6227812.737 23185873.270 8574424.877 10 0 60660 75600.00000 0 -6400048.374 24054028.202 5494980.461 10 0 60660 76500.00000 0 -6384280.671 24567066.039 2308566.690 10 0 60660 77400.00000 0 -6229326.253 24695544.472 -922798.137 10 0 60660 78300.00000 0 -5989165.623 24422646.381 -4136183.960 10 0 60660 79200.00000 0 -5720413.783 23744956.211 -7268985.957 10 0 60660 80100.00000 0 -5479682.891 22672689.269 -10260156.946 10 0 60660 81000.00000 0 -5320950.354 21229363.303 -13051409.781 10 0 60660 81900.00000 0 -5293045.625 19450925.583 -15588364.908 10 0 60660 82800.00000 0 -5437363.839 17384372.112 -17821619.480 10 0 60660 83700.00000 0 -5785904.573 15085917.205 -19707716.291 10 0 60660 84600.00000 0 -6359719.896 12618790.771 -21209993.113 10 0 60660 85500.00000 0 -7167838.154 10050756.319 -22299295.701 10 0 60661 0.00000 0 -8206709.310 7451454.380 -22954540.767 10 0 60661 900.00000 0 -9460196.031 4889681.467 -23163118.786 10 0 60661 1800.00000 0 -10900109.350 2430721.798 -22921128.733 10 0 60661 2700.00000 0 -12487267.993 133838.156 -22233442.302 10 0 60661 3600.00000 0 -14173035.177 -1949970.786 -21113596.309 10 0 60661 4500.00000 0 -15901268.512 -3779855.819 -19583516.743 10 0 60661 5400.00000 0 -17610600.849 -5326568.091 -17673080.578 10 0 60661 6300.00000 0 -19236956.260 -6573417.077 -15419524.594 10 0 60661 7200.00000 0 -20716195.673 -7516697.926 -12866713.258 10 0 60661 8100.00000 0 -21986781.430 -8165572.769 -10064280.363 10 0 60661 9000.00000 0 -22992349.465 -8541413.383 -7066661.376 10 0 60661 9900.00000 0 -23684081.767 -8676634.965 -3932035.535 10 0 60661 10800.00000 0 -24022780.331 -8613071.980 -721198.276 10 0 60661 11700.00000 0 -23980556.378 -8399965.857 2503614.174 10 0 60661 12600.00000 0 -23542064.725 -8091650.343 5679925.410 10 0 60661 13500.00000 0 -22705232.239 -7745032.578 8746221.725 10 0 60661 14400.00000 0 -21481450.257 -7416976.232 11643134.493 10 0 60661 15300.00000 0 -19895223.147 -7161696.792 14314579.790 10 0 60661 16200.00000 0 -17983287.513 -7028278.341 16708834.034 10 0 60661 17100.00000 0 -15793238.321 -7058415.882 18779525.802 10 0 60661 18000.00000 0 -13381718.336 -7284477.838 20486525.539 10 0 60661 18900.00000 0 -10812245.094 -7727969.978 21796716.949 10 0 60661 19800.00000 0 -8152764.295 -8398465.477 22684635.879 10 0 60661 20700.00000 0 -5473029.721 -9293046.650 23132964.893 10 0 60661 21600.00000 0 -2841916.796 -10396282.845 23132874.164 10 0 60661 22500.00000 0 -324779.780 -11680746.973 22684201.875 10 0 60661 23400.00000 0 2019039.000 -13108050.889 21795470.063 10 0 60661 24300.00000 0 4138445.480 -14630358.316 20483734.588 10 0 60661 25200.00000 0 5992483.426 -16192313.995 18774270.827 10 0 60661 26100.00000 0 7551798.882 -17733310.043 16700099.719 10 0 60661 27000.00000 0 8799618.429 -19189995.946 14301361.790 10 0 60661 27900.00000 0 9732200.205 -20498927.780 11624549.876 10 0 60661 28800.00000 0 10358738.446 -21599245.633 8721614.287 10 0 60661 29700.00000 0 10700725.347 -22435266.332 5648957.019 10 0 60661 30600.00000 0 10790797.016 -22958881.415 2466334.221 10 0 60661 31500.00000 0 10671112.352 -23131657.955 -764311.489 10 0 60661 32400.00000 0 10391333.878 -22926552.020 -3980065.516 10 0 60661 33300.00000 0 10006296.839 -22329160.769 -7118277.877 10 0 60661 34200.00000 0 9573466.465 -21338458.725 -10117796.463 10 0 60661 35100.00000 0 9150292.597 -19966985.785 -12920171.491 10 0 60661 36000.00000 0 8791575.355 -18240478.011 -15470806.306 10 0 60661 36900.00000 0 8546955.036 -16196956.172 -17720030.827 10 0 60661 37800.00000 0 8458633.939 -13885310.140 -19624075.807 10 0 60661 38700.00000 0 8559427.663 -11363438.714 -21145928.377 10 0 60661 39600.00000 0 8871229.111 -8696023.265 -22256052.002 10 0 60661 40500.00000 0 9403950.438 -5952028.807 -22932957.069 10 0 60661 41400.00000 0 10154987.712 -3202037.331 -23163611.505 10 0 60661 42300.00000 0 11109230.586 -515524.906 -22943684.189 10 0 60661 43200.00000 0 12239616.112 2041804.047 -22277617.342 10 0 60661 44100.00000 0 13508202.828 4410514.826 -21178527.414 10 0 60661 45000.00000 0 14867719.317 6539669.713 -19667937.321 10 0 60661 45900.00000 0 16263521.583 8388693.127 -17775346.096 10 0 60661 46800.00000 0 17635876.598 9928798.737 -15537644.995 10 0 60661 47700.00000 0 18922475.769 11143921.096 -12998392.025 10 0 60661 48600.00000 0 20061072.722 12031115.246 -10206959.427 10 0 60661 49500.00000 0 20992134.726 12600409.969 -7217570.987 10 0 60661 50400.00000 0 21661396.675 12874123.131 -4088248.107 10 0 60661 51300.00000 0 22022210.853 12885669.952 -879685.156 10 0 60661 52200.00000 0 22037594.339 12677915.985 2345924.118 10 0 60661 53100.00000 0 21681888.674 12301145.418 5526086.498 10 0 60661 54000.00000 0 20941962.638 11810731.030 8599212.628 10 0 60661 54900.00000 0 19817908.075 11264604.292 11505800.961 10 0 60661 55800.00000 0 18323199.684 10720632.128 14189580.022 10 0 60661 56700.00000 0 16484311.912 10234010.399 16598587.719 10 0 60661 57600.00000 0 14339808.334 9854783.277 18686167.747 10 0 60661 58500.00000 0 11938940.621 9625592.208 20411864.753 10 0 60661 59400.00000 0 9339814.125 9579748.595 21742201.881 10 0 60661 60300.00000 0 6607194.840 9739710.877 22651326.479 10 0 60661 61200.00000 0 3810047.118 10116030.044 23121511.961 10 0 60661 62100.00000 0 1018902.524 10706808.342 23143506.400 10 0 60661 63000.00000 0 -1696832.748 11497694.873 22716720.908 10 0 60661 63900.00000 0 -4271521.727 12462419.650 21849253.573 10 0 60661 64800.00000 0 -6645783.336 13563845.414 20557747.545 10 0 60661 65700.00000 0 -8768719.461 14755494.898 18867084.722 10 0 60661 66600.00000 0 -10599790.294 15983491.217 16809919.481 10 0 60661 67500.00000 0 -12110259.917 17188831.419 14426059.974 10 0 60661 68400.00000 0 -13284151.692 18309898.716 11761707.506 10 0 60661 69300.00000 0 -14118673.063 19285108.213 8868567.615 10 0 60661 70200.00000 0 -14624091.670 20055574.668 5802849.289 10 0 60661 71100.00000 0 -14823067.666 20567689.104 2624171.422 10 0 60661 72000.00000 0 -14749470.365 20775494.357 -605602.007 10 0 60661 72900.00000 0 -14446729.404 20642757.680 -3823574.762 10 0 60661 73800.00000 0 -13965790.778 20144651.072 -6967054.500 10 0 60661 74700.00000 0 -13362765.193 19268966.536 -9974786.834 10 0 60661 75600.00000 0 -12696369.583 18016813.288 -12788161.811 10 0 60661 76500.00000 0 -12025271.590 16402766.112 -15352367.901 10 0 60661 77400.00000 0 -11405450.917 14454457.595 -17617469.743 10 0 60661 78300.00000 0 -10887690.634 12211630.794 -19539387.703 10 0 60661 79200.00000 0 -10515305.647 9724691.875 -21080759.614 10 0 60661 80100.00000 0 -10322205.154 7052823.496 -22211667.684 10 0 60661 81000.00000 0 -10331371.260 4261738.170 -22910216.637 10 0 60661 81900.00000 0 -10553817.935 1421165.774 -23162952.341 10 0 60661 82800.00000 0 -10988073.798 -1397819.688 -22965113.515 10 0 60661 83700.00000 0 -11620209.841 -4125522.656 -22320712.533 10 0 60661 84600.00000 0 -12424410.051 -6696284.864 -21242444.691 10 0 60661 85500.00000 0 -13364059.969 -9050970.428 -19751428.645 99